CZ-6A DEB, 61383

Orbit data source: Space-Track

CZ-6A DEB, 61383 is space debris in LEO originally from a launch on Tue, 06 Aug 2024 UTC launched from the Taiyaun Space Center, China (TSC). Debris objects in space refer to the collection of defunct objects orbiting the Earth. Examples of debris include non-operational satellites, rocket bodies, and fragments generated from explosions, collisions, or faulty payload assembly.

Loading next visibility...
Identifier
61383, 2024-140WY
Orbit
LEO
Country
Flag of CNCN / PRC
Related business
Manufacturer
SAST
Mission
Spacecraft
Bus & Motor
Unknown
Mass
Unknown
Launch date (UTC)
2024-08-06 (2 years ago)
Launch vehicle
Unknown
Launch site
Taiyaun Space Center, China (TSC)
Object type
Payload
Rocket body
Debris
Shape & HBR
Unknown shape, 0.1 m
Radar Cross Section
Small (<0.1 m²)

Expand to show TLE details & history
Last TLE update: 15 hours ago

TLE from 15 hours ago
0 CZ-6A DEB
1 61383U 24140WY  26129.91217964  .00001163  00000-0  61142-3 0  9999
2 61383  88.9908 279.7303 0094073 351.9450   8.0218 14.11256361 86199
Epoch: 2026-05-09T21:53Z
TLE epoch observation values (Epoch: 2026-05-09T21:53:32.320Z)
Latitude
-0.00011°
Longitude
83.62282°
Altitude
790.736 km
Speed
7.493 km/s
True Right ascension
18h 38m 55s
True Declination
0° 00' 00"
Sunlit
Object was in full shadow at epoch
Visualization orbit readout
Latitude
Unknown
Longitude
Unknown
Altitude
Unknown
Speed
Unknown
Apparent Right ascension
Unknown
Apparent Declination
Unknown
Sunlit
N/A
Visualization observer readout
Local Sidereal Time
20:41:04
Azimuth
Unknown
Elevation
Unknown
Doppler factor
Unknown
Orbital elements
Apogee altitude
920.056 km
Perigee altitude
784.023 km
Semi-major axis
7,230.176 km
Eccentricity
0.00941
Inclination
88.9908°
RAAN
279.7303°
Arg. of periapsis
351.945°
True anomaly
8.17401°
Mean anomaly
8.0218°
Eccentric anomaly
8.09772°
Mean motion
3.53037 °/min
Orbital period
101.97 mins
BSTAR
0.00061142
Loading maneuver chart data...
Computing Atmospheric mass density...
Loading historical data...
Loading historical data...
Loading historical data...
Loading historical data...
Loading historical data...
Loading historical data...
Loading historical data...

Documentation

Showing up to 5 results
|